AirNav   Bose ProFlight Series 2 Headset
 
 1027 users online  

F22 Perry Municipal Airport
Perry, Oklahoma, USA

GOING TO PERRY?


FAA INFORMATION EFFECTIVE 30 JANUARY 2020

Location

FAA Identifier: F22
Lat/Long: 36-23-08.2000N 097-16-38.0000W
36-23.136667N 097-16.633333W
36.3856111,-97.2772222
(estimated)
Elevation: 1002.5 ft. / 305.6 m (surveyed)
Variation: 06E (1995)
From city: 5 miles N of PERRY, OK
Time zone: UTC -6 (UTC -5 during Daylight Saving Time)
Zip code: 73077

Airport Operations

Airport use: Open to the public
Activation date: 08/1943
Control tower: no
ARTCC: KANSAS CITY CENTER
FSS: MC ALESTER FLIGHT SERVICE STATION
NOTAMs facility: MLC (NOTAM-D service available)
Attendance: 0800 - 1700
AIRPORT UNATTENDED CHRISTMAS DAY.
Wind indicator: lighted
Segmented circle: yes
Lights: ACTVT MIRL RY 17/35 AND REIL RWY 17 & RWY 35 - CTAF.
Beacon: white-green (lighted land airport)
Operates sunset to sunrise.

Airport Communications

CTAF/UNICOM: 122.8
WX ASOS at SWO (16 nm SE): 135.725 (405-743-8150)
  • APCH/DEP SVC PRVDD BY KANSAS CITY ARTCC ON FREQS 127.8/319.1 (PONCA CITY RCAG).

Nearby radio navigation aids

VOR radial/distance  VOR name  Freq  Var
SWOr309/13.5STILLWATER VOR/DME108.4007E
PERr189/22.4PIONEER VORTAC113.2006E
ODGr080/24.7WOODRING VOR/DME109.0008E
ENDr080/31.1VANCE VORTAC115.4005E

 
NDB name  Hdg/Dist  Freq  Var  ID
BLAKI309/12.825505ESW ... .--

Airport Services

Fuel available: 100LL JET-A
Parking: tiedowns
Airframe service: MINOR
Powerplant service: MINOR

Runway Information

Runway 17/35

Dimensions: 5103 x 75 ft. / 1555 x 23 m
Surface: asphalt, in good condition
Weight bearing capacity: 
Single wheel: 75.0
Double wheel: 130.0
Runway edge lights: medium intensity
Gradient: SOUTH.
RUNWAY 17  RUNWAY 35
Latitude: 36-23.557095N36-22.716153N
Longitude: 097-16.635762W097-16.630862W
Elevation: 974.0 ft.1002.4 ft.
Traffic pattern: leftleft
Runway heading: 174 magnetic, 180 true354 magnetic, 360 true
Markings: nonprecision, in good conditionnonprecision, in good condition
Visual slope indicator: 2-light PAPI on left (3.00 degrees glide path)2-light PAPI on left (3.00 degrees glide path)
Runway end identifier lights: yesyes
Touchdown point: yes, no lightsyes, no lights
Obstructions: none20 ft. road, 670 ft. from runway, 23:1 slope to clear

Airport Ownership and Management from official FAA records

Ownership: Publicly-owned
Owner: CITY OF PERRY
CITY HALL, PO BOX 798
PERRY, OK 73077
Phone 580-336-4241
Manager: JOHN ANDERSON
15500 CR 110
PERRY, OK 73077
Phone 580-336-4001

Airport Operational Statistics

Aircraft based on the field: 26
Single engine airplanes: 22
Helicopters: 2
Ultralights: 2
    
Aircraft operations: avg 96/day *
43% military
34% local general aviation
23% transient general aviation
* for 12-month period ending 30 January 2019

Additional Remarks

ULTRALIGHT ACTIVITY ON & INVOF ARPT.
HEAVY MILITARY JET TFC DALGT.
FOR CD CTC KANSAS CITY ARTCC AT 913-254-8508.

Instrument Procedures

NOTE: All procedures below are presented as PDF files. If you need a reader for these files, you should download the free Adobe Reader.

NOT FOR NAVIGATION. Please procure official charts for flight.
FAA instrument procedures published for use from 30 January 2020 at 0901Z to 27 Feburary 2020 at 0900Z.

 
IAPs - Instrument Approach Procedures
RNAV (GPS) RWY 17   download (222KB)
RNAV (GPS) RWY 35   download (225KB)
VOR RWY 17   download (183KB)
NOTE: Special Take-Off Minimums/Departure Procedures apply   download (131KB)

Other nearby airports with instrument procedures:

KSWO - Stillwater Regional Airport (16 nm SE)
KBKN - Blackwell-Tonkawa Municipal Airport (22 nm N)
KPNC - Ponca City Regional Airport (22 nm N)
KWDG - Enid Woodring Regional Airport (25 nm W)
KEND - Vance Air Force Base (31 nm W)
 
Loc | Ops | Rwys | IFR | FBO | Links
Com | Nav | Svcs | Stats | Notes
Area around F22 (Perry Municipal Airport)
 
Road maps at: MapQuest Bing Google
 
Aerial photo
WARNING: Photo may not be current or correct
Aerial photo of F22 (Perry Municipal Airport)
Do you have a better or more recent aerial photo of Perry Municipal Airport that you would like to share? If so, please send us your photo.

 
Sectional chart

 
Airport diagram
CAUTION: Diagram may not be current
Diagram of F22 (Perry Municipal Airport)
 
Airport distance calculator
Flying to Perry Municipal Airport? Find the distance to fly.

From to F22

Sunrise and sunset
Times for 21-Feb-2020
 Local
(UTC-6)
 Zulu
(UTC)
Morning civil twilight06:4512:45
Sunrise07:1113:11
Sunset18:1500:15
Evening civil twilight18:4100:41

Current date and time
Zulu (UTC)  22-Feb-2020 00:31:33
Local (UTC-6)  21-Feb-2020 18:31:33
 
METAR
KSWO 
16nm SE 
212353Z 14010KT 10SM CLR 07/M09 A3043 RMK AO2 SLP310 T00721094 10100 20039 56029
KBKN 
22nm N 
220015Z AUTO 18009KT 10SM CLR 05/M06 A3043 RMK AO2
KPNC 
23nm N 
212353Z AUTO 16009KT 10SM CLR 06/M09 A3041 RMK AO2 SLP306 T00611089 10089 20033 56029
KWDG 
24nm W 
212350Z 16009KT 10SM BKN250 07/M04 A3039
KEND 
31nm W 
212356Z AUTO 15010KT 10SM CLR 06/M04 A3038 RMK AO2 SLP304 T00631042 10096 20039 57027 $
TAF
KPNC 
23nm N 
211720Z 2118/2218 19006KT P6SM SKC
NOTAMs
Click for the latest NOTAMs
NOTAMs are issued by the DoD/FAA and will open in a separate window not controlled by AirNav.

 

 
 

FBO, Fuel Providers, and Aircraft Ground Support

  
 Business Name 
 
 Contact 
 
 Services / Description 
 
Fuel Prices
 
Comments
  
 Perry Municipal Airport
580-336-4001
580-370-2259
Airport management, Aviation fuel, Aircraft parking (ramp or tiedown), Hangars, Hangar leasing / sales, Passenger terminal and lounge, Aircraft maintenance, Catering, ...
More info and photos of Perry Municipal Airport
Phillips 66
100LL Jet A
FS $4.59 $3.99 
 Updated 14-Feb-2020
 
   2 read write
FS=Full service
Update Fuel Prices
 

Would you like to see your business listed on this page?

 If your business provides an interesting product or service to pilots, flight crews, aircraft, or users of the Perry Municipal Airport, you should consider listing it here.  To start the listing process, click on the button below
 
Add a business
 

Other Pages about Perry Municipal Airport

Mid Air Collision Avoidance for KEND (Vance Air Force Base)
 
Update a link
 
Copyright © AirNav, LLC. All rights reserved. Privacy Policy  Contact